Regional Weather Roundup
Issued by NWS

Home | Current Version | Previous Version | Text Only | Print | Product List | Glossary Off
Versions: 1 2 3 4 5 6 7 8 9 10 11 12 13 14 15 16 17 18 19 20 21 22 23 24 25 26 27

000
ASUS45 KSLC 280810
RWRUT

UTAH REGIONAL WEATHER ROUNDUP
NATIONAL WEATHER SERVICE SALT LAKE CITY UT
200 AM MDT FRI APR 28 2017

UTZ001>011-023>025-280900-

NORTHERN UTAH

CITY           SKY/WX    TMP DP  RH WIND       PRES   REMARKS
BRIGHAM CITY   CLEAR     37  20  50 NW8       29.88S WCI  31
HILL AFB       CLOUDY    37  19  47 NW13      29.86S WCI  29
LOGAN          PTCLDY    32  25  75 CALM      29.86F
OGDEN          CLOUDY    37  22  54 N9        29.86S WCI  30
SALT LAKE CITY CLOUDY    41  30  65 CALM      29.86F
TOOELE VALLEY  PTCLDY    34  27  75 SW6       29.90S WCI  29
WENDOVER       CLEAR     40  20  44 NW13G24   29.92F WCI  32
HEBER CITY     LGT SNOW  32  30  93 CALM      29.83F
WEST JORDAN    CLOUDY    38  37  94 SW3       29.88S

$$

UTZ011>015-024>027-280900-

CENTRAL/NORTHEAST UTAH

CITY           SKY/WX    TMP DP  RH WIND       PRES   REMARKS
PROVO AIRPORT  PTCLDY    36  28  73 N8        29.88S WCI  30
MOAB/CANYONLAN CLEAR     41  16  36 NW17      29.76F
DELTA          PTCLDY    32  28  86 W6        29.90S WCI  26
PRICE          PTCLDY    34  22  61 NW14      29.79F WCI  25
ROOSEVELT      PTCLDY    37  18  44 W14G23    29.78F WCI  29
VERNAL         CLEAR     30  19  63 W7        29.76F WCI  23

$$

UTZ013>016-019>022-027-280900-

SOUTHERN UTAH

CITY           SKY/WX    TMP DP  RH WIND       PRES   REMARKS
BRYCE CANYON   PTCLDY    27  20  75 NW10      29.85F WCI  17
CEDAR CITY     PTCLDY    34  25  69 N8        29.85F WCI  27
MILFORD        CLOUDY    39  27  62 NE15      29.90R WCI  31
HANKSVILLE     CLEAR     36  23  60 CALM      29.83R
BLANDING       CLOUDY    42  18  37 NW9       29.85S

$$

REGIONAL REPORTS     COLORADO/ARIZONA

CITY           SKY/WX    TMP DP  RH WIND       PRES   REMARKS
CRAIG, CO      CLOUDY    33  22  63 VRB3      29.76S
GRAND JUNCTION CLOUDY    38  21  50 NW9       29.76S WCI  31
RIFLE, CO      CLOUDY    33  29  85 E3        29.76F
MONTROSE, CO   CLEAR     32  17  54 S7        29.77F WCI  26
CORTEZ, CO     CLOUDY    43  19  38 W7G26     29.78S
COLORADO CITY    N/A     52  21  30 NW14      29.83R
PAGE, AZ       MOCLDY    53  23  31 NW7       29.76R
GRAND CANYON   CLOUDY    44  16  32 CALM      29.81S
KINGMAN, AZ    PTCLDY    59  14  17 VRB5      29.72S
FLAGSTAFF, AZ  CLEAR     48  21  34 SW9       29.81F

$$

REGIONAL REPORTS    NEVADA/IDAHO/WYOMING

CITY           SKY/WX    TMP DP  RH WIND       PRES   REMARKS
LAS VEGAS, NV  PTCLDY    69   5   8 NE13      29.72R
ELY, NY        CLEAR     26  17  68 W7        29.93S WCI  18
ELKO, NV       CLOUDY    34  24  67 CALM      29.97S
POCATELLO, ID  CLOUDY    32  29  88 S13       29.89R WCI  22
BURLEY, ID     CLEAR     34  25  69 W18G24    29.88S WCI  23
EVANSTON, WY   PTCLDY    22  19  89 W10       29.81F WCI  11
ROCK SPRINGS,  CLOUDY    30  20  66 W22       29.74F WCI  17

$$




USA.gov is the U.S. government's official web portal to all federal, state and local government web resources and services.